Tracking 26922 objects as of 1-Feb-2023
HD Live streaming from Space Station
objects crossing your sky now

COSMOS 886 DEB

Track COSMOS 886 DEB now!
10-day predictions


NORAD ID: 9956
Int'l Code: 1976-126AW
Perigee: 802.8 km
Apogee: 2,255.4 km
Inclination: 65.8 °
Period: 116.5 minutes
Semi major axis: 7900 km
RCS: 0.0279 m2 (small)
Launch date: December 27, 1976
Source: Commonwealth of Independent States (former USSR) (CIS)
Launch site: TYURATAM MISSILE AND SPACE COMPLEX (TTMTR)

Note: This is SATELLITE DEBRIS
Your satellite tracking list
Your tracking list is empty




NASA's NSSDC Master Catalog

Two Line Element Set (TLE):
1 09956U 76126AW  23031.21488024 -.00000039  00000-0  28516-4 0  9998
2 09956  65.7954 100.0693 0919377  55.3594 313.0632 12.36388797378700
Source of the keplerian elements: AFSPC